Location: Amherst
(42.5000°N, 72.5000°W)
Time: 15:58:43
(UTC-04:00)

ISS - Pass Details

Date: 16 March 2018
Orbit: 403 x 408 km, 51.6° (Epoch: 20 September)

Event Time Altitude Azimuth Distance (km) Brightness Sun altitude
Exits shadow 06:24:18 - 299° (WNW) 1,787 -1.1 -7.5°
Reaches altitude 10° 06:25:02 10° 297° (WNW) 1,489 -1.5 -7.3°
Maximum altitude 06:28:19 57° 219° (SW) 492 -3.6 -6.7°
Drops below altitude 10° 06:31:33 10° 139° (SE) 1,469 -0.4 -6.1°
Sets 06:33:38 0° 135° (SE) 2,323 0.7 -5.7°
